To NAV CANADA Home Page Login to a new session Search on AWWS site Feedback and Comments Disclaimer Vers la page française équivalente Tips FAQ What's new on the site To the Forecasts and Observations / NOTAM section To "File a Flight Plan" website Publications and other links Update of the User's profile FIC Telephone Numbers My Weather Data Folder Route Weather Data Regional Weather Data Local Weather Data To the Forecasts and Observations / NOTAM section
Request Generated 04/29/2016 at 12:01:21 UTC . Weather information available at that time is displayed.

METAR/TAF

QUAQTAQ/QC    

LWIS CYHA 291100Z AUTO 31018KT M01/M02 A3007=
LWIS CYHA 291000Z AUTO 31015KT M02/M03 A3008=
LWIS CYHA 290900Z AUTO 31008KT M02/M03 A3010=

*** REMARK        : Forecast period has ended; this was the last TAF issued
*** REMARQUE : La période de prévision est échue; ceci était le dernier TAF qui a été émis
TAF AMD CYHA 282002Z 2820/2821 34012KT 2SM -SN -FZDZ BR OVC003 TEMPO
2820/2821 6SM BR SCT003 OVC008
RMK NXT FCST WILL BE ISSUED AT 291345Z=
Your time UTC time
Weather data provided by Environment Canada and NAV CANADA